• Join FlightAware (Why Join?)
  • Login
  • US Flag GB Flag 
11:28 EDT


 

Airport Tracker/Info


-or-


 

Live Flight TrackerFlight Track Log ✈ SWA2122 ✈ 13-Apr-2013 ✈ KBNA - KFLL

Flight Track Log - Related Links

Times and Time Zones

All times are in EDT time to prevent confusion due to time zone crossing. See the SWA2122 flight status page for this flight to view local times or setup timezone preferences in your user account.

Time Position Orientation Groundspeed Altitude Reporting Facility
EDT Latitude Longitude Course Direction KTS MPH feet Rate Location/Type
11:23 36.1833 -86.5833 58° Northeast 239 275 3,000  Level Nashville TRACON
11:24 36.1167 -86.5333 149° Southeast 294 338 5,300 2,520 Climbing Nashville TRACON
11:25 36.0500 -86.5333 180° South 293 337 7,900 2,880 Climbing Nashville TRACON
11:26 35.9739 -86.5097 166° South 299 344 10,700 2,160 Climbing Memphis Center
11:27 35.8794 -86.4936 172° South 321 369 12,200 1,920 Climbing Memphis Center
11:28 35.7744 -86.4731 171° South 366 421 14,600 2,220 Climbing Memphis Center
11:30 35.5719 -86.4311 170° South 396 456 18,700 2,040 Climbing Atlanta Center
11:31 35.4639 -86.4075 170° South 396 456 20,600 1,920 Climbing Atlanta Center
11:32 35.3561 -86.3764 167° South 396 456 22,600 1,740 Climbing Atlanta Center
11:33 35.2467 -86.3147 155° Southeast 414 476 24,100 1,440 Climbing Atlanta Center
11:34 35.1414 -86.2561 156° South 425 489 25,500 1,440 Climbing Atlanta Center
11:35 35.0275 -86.1947 156° South 430 495 27,000 1,260 Climbing Atlanta Center
11:36 34.9364 -86.1544 160° South 436 502 28,100 1,320 Climbing Atlanta Center
11:37 34.7997 -86.0978 161° South 436 502 29,700 1,500 Climbing Atlanta Center
11:38 34.6878 -86.0494 160° South 431 496 31,100 1,320 Climbing Atlanta Center
11:39 34.5800 -86.0017 160° South 426 490 32,400 1,200 Climbing Atlanta Center
11:40 34.4703 -85.9561 161° South 418 481 33,600 1,200 Climbing Atlanta Center
11:41 34.3644 -85.9111 161° South 413 475 34,800 600 Climbing Atlanta Center
11:42 34.2567 -85.8658 161° South 413 475 34,900  Climbing Atlanta Center
11:43 34.1486 -85.8208 161° South 407 468 34,900  Level Atlanta Center
11:44 34.0511 -85.7864 164° South 407 468 34,900  Level Atlanta Center
11:45 33.9350 -85.7364 160° South 407 468 34,900  Level Atlanta Center
11:46 33.8228 -85.6917 162° South 407 468 34,900  Level Atlanta Center
11:47 33.7169 -85.6422 159° South 407 468 34,900  Level Atlanta Center
11:48 33.6092 -85.6003 162° South 407 468 34,900  Level Atlanta Center
11:49 33.5011 -85.5558 161° South 407 468 34,900  Level Atlanta Center
11:50 33.3953 -85.5117 161° South 407 468 34,900  Level Atlanta Center
11:51 33.2850 -85.4678 162° South 407 468 34,900  Level Atlanta Center
11:52 33.1811 -85.4264 162° South 402 463 34,900  Level Atlanta Center
11:53 33.0711 -85.3775 160° South 407 468 34,900  Level Atlanta Center
11:54 32.9650 -85.3311 160° South 407 468 34,900  Level Atlanta Center
11:55 32.8592 -85.2853 160° South 407 468 34,900  Level Atlanta Center
11:56 32.7511 -85.2442 162° South 407 468 34,900  Level Atlanta Center
11:57 32.6428 -85.1983 160° South 407 468 34,900  Level Atlanta Center
11:58 32.5264 -85.1522 162° South 412 474 34,900  Level Atlanta Center
11:59 32.4225 -85.1092 161° South 420 483 34,900  Level Atlanta Center
12:00 32.3100 -85.0661 162° South 415 478 34,900  Level Atlanta Center
12:01 32.1978 -85.0256 163° South 415 478 34,900  Level Atlanta Center
12:02 32.0875 -84.9825 162° South 420 483 34,900  Level Atlanta Center
12:02 32.0411 -84.9586 156° South 419 482 34,900  Level Jacksonville Center
12:03 31.9333 -84.9147 161° South 425 489 34,900  Level Jacksonville Center
12:04 31.8253 -84.8731 162° South 420 483 34,900  Level Jacksonville Center
12:05 31.7175 -84.8317 162° South 415 478 34,900  Level Jacksonville Center
12:06 31.6075 -84.7881 161° South 421 484 34,900  Level Jacksonville Center
12:07 31.4953 -84.7442 162° South 421 484 34,900  Level Jacksonville Center
12:08 31.3894 -84.7008 161° South 416 479 34,900  Level Jacksonville Center
12:09 31.2836 -84.6600 162° South 416 479 34,900  Level Jacksonville Center
12:10 31.1736 -84.6167 161° South 416 479 34,900  Level Jacksonville Center
12:11 31.0656 -84.5758 162° South 411 473 34,900  Level Jacksonville Center
12:12 30.9575 -84.5328 161° South 411 473 34,900  Level Jacksonville Center
12:13 30.8494 -84.4897 161° South 411 473 34,900  Level Jacksonville Center
12:14 30.7436 -84.4467 161° South 411 473 34,900  Level Jacksonville Center
12:15 30.6333 -84.4064 163° South 411 473 34,900  Level Jacksonville Center
12:16 30.5253 -84.3564 158° South 411 473 34,900  Level Jacksonville Center
12:17 30.4217 -84.2875 150° Southeast 411 473 34,900  Level Jacksonville Center
12:18 30.3203 -84.2208 150° Southeast 421 484 34,900  Level Jacksonville Center
12:19 30.2289 -84.1594 150° Southeast 421 484 34,900  Level Jacksonville Center
12:20 30.1253 -84.0958 152° Southeast 421 484 34,900  Level Jacksonville Center
12:21 30.0214 -84.0272 150° Southeast 421 484 34,900  Level Jacksonville Center
12:22 29.9197 -83.9589 150° Southeast 421 484 34,900  Level Jacksonville Center
12:23 29.8014 -83.8833 151° Southeast 426 490 34,900  Level Jacksonville Center
12:24 29.6975 -83.8178 151° Southeast 433 498 34,900  Level Jacksonville Center
12:25 29.5956 -83.7500 150° Southeast 433 498 34,900  Level Jacksonville Center
12:26 29.4917 -83.6822 150° Southeast 433 498 34,900  Level Jacksonville Center
12:27 29.3833 -83.6172 152° Southeast 433 498 34,900  Level Jacksonville Center
12:28 29.2817 -83.5472 149° Southeast 433 498 34,900  Level Jacksonville Center
12:29 29.1733 -83.4822 152° Southeast 433 498 34,900  Level Jacksonville Center
12:30 29.0672 -83.4153 151° Southeast 433 498 34,900  Level Jacksonville Center
12:31 28.9650 -83.3458 149° Southeast 433 498 34,900  Level Jacksonville Center
12:32 28.8653 -83.2672 145° Southeast 433 498 34,900  Level Jacksonville Center
12:33 28.7672 -83.1861 144° Southeast 438 504 34,900  Level Jacksonville Center
12:34 28.6694 -83.1056 144° Southeast 438 504 34,900  Level Jacksonville Center
12:35 28.5714 -83.0225 143° Southeast 443 510 34,900  Level Jacksonville Center
12:36 28.4756 -82.9444 144° Southeast 437 503 34,900  Level Jacksonville Center
12:38 28.2725 -82.7772 144° Southeast 459 528 34,900  Level Miami Center
12:39 28.1736 -82.6944 144° Southeast 453 521 34,900  Level Miami Center
12:40 28.0747 -82.6117 144° Southeast 453 521 34,900  Level Miami Center
12:41 27.9778 -82.5317 144° Southeast 443 510 34,900  Level Miami Center
12:42 27.8611 -82.4789 158° South 437 503 34,900 -420 Level Miami Center
12:43 27.7664 -82.4436 162° South 427 491 34,100 -900 Descending Miami Center
12:44 27.6533 -82.4031 162° South 420 483 33,100 -1,080 Descending Miami Center
12:45 27.5339 -82.3575 161° South 414 476 32,000 -1,020 Descending Miami Center
12:46 27.4208 -82.3169 162° South 414 476 31,100 -600 Descending Miami Center
12:47 27.3208 -82.3075 175° South 398 458 30,900 -420 Descending Miami Center
12:48 27.2042 -82.3603 202° Southwest 398 458 30,300 -900 Descending Miami Center
12:49 27.0981 -82.4089 202° Southwest 405 466 29,200 -1,020 Descending Miami Center
12:50 27.0044 -82.4022 176° South 410 472 28,300 -1,020 Descending Miami Center
12:51 26.8800 -82.3800 171° South 410 472 27,200 -1,080 Descending Miami Center
12:52 26.7722 -82.3586 170° South 403 464 26,200 -1,020 Descending Miami Center
12:53 26.6631 -82.3233 164° South 403 464 25,200 -960 Descending Miami Center
12:54 26.6022 -82.2136 122° Southeast 387 445 24,300 -960 Descending Miami Center
12:55 26.5528 -82.0861 113° Southeast 406 467 23,300 -1,080 Descending Miami Center
12:56 26.5069 -81.9658 113° Southeast 416 479 22,200 -1,140 Descending Miami Center
12:57 26.4569 -81.8383 114° Southeast 411 473 21,100 -1,080 Descending Miami Center
12:58 26.4128 -81.7275 114° Southeast 398 458 20,100 -960 Descending Miami Center
12:59 26.3664 -81.6167 115° Southeast 393 452 19,200 -1,620 Descending Miami Center
13:00 26.3219 -81.5036 114° Southeast 393 452 16,900 -1,200 Descending Miami Center
13:01 26.2794 -81.3956 114° Southeast 393 452 16,800 -300 Descending Miami Center
13:02 26.2386 -81.2967 115° Southeast 370 426 16,400 -2,340 Descending Miami Center
13:03 26.1978 -81.1956 114° Southeast 358 412 12,200 -3,660 Descending Miami Center
13:04 26.1606 -81.1133 117° Southeast 371 427 10,000 -2,100 Descending Miami Center
13:05 26.1175 -81.0078 114° Southeast 300 345 8,100 -1,740 Descending Miami Center
13:06 26.0906 -80.9306 111° Southeast 300 345 6,300 -1,140 Descending Miami Center
13:07 26.0867 -80.8425 93° East 278 320 5,900 -240 Descending Miami Center
13:08 26.0744 -80.7542 99° East 282 325 5,900  Level Miami Center
13:09 26.0811 -80.6617 85° East 275 316 6,000  Climbing Miami Center
13:10 26.0831 -80.5878 88° East 278 320 5,900 -60 Descending Miami Center
13:11 26.0744 -80.5114 97° East 271 312 5,900 -900 Level Miami Center
13:12 26.0747 -80.4164 90° East 268 308 4,100 -1,260 Descending Miami Center
13:13 26.0744 -80.3403 90° East 230 265 3,200 -1,080 Descending Miami Center
13:14 26.0739 -80.2778 91° East 188 216 2,000 -1,140 Descending Miami Center
13:15 26.0750 -80.2292 89° East 157 181 1,000 -780 Descending Miami Center
13:16 26.0719 -80.1758 94° East 168 193 500 420 Descending Miami Center
13:17 26.1086 -80.1214 53° Northeast 238 274 2,000 1,200 Climbing Miami Center
13:18 26.1658 -80.0906 26° Northeast 279 321 3,000 420 Climbing Miami Center
13:19 26.1706 -80.1603 274° West 233 268 2,900 -60 Descending Miami Center
13:21 26.1564 -80.2244 256° West 221 254 2,900  Level Miami Center
13:22 26.1528 -80.2892 266° West 195 224 2,900 -300 Level Miami Center
13:23 26.1083 -80.3203 212° Southwest 204 235 2,400 -480 Descending Miami Center
13:24 26.0714 -80.2869 141° Southeast 192 221 2,000 -660 Descending Miami Center
13:25 26.0750 -80.2222 86° East 158 182 1,000 -840 Descending Miami Center